Tracking 29892 objects as of 21-Nov-2024
HD Live streaming from Space Station
objects crossing your sky now

STARLINK-3313

Track STARLINK-3313 now!
10-day predictions
STARLINK-3313 is classified as:


NORAD ID: 50157
Int'l Code: 2021-125B
Perigee: 545.9 km
Apogee: 547.9 km
Inclination: 53.2 °
Period: 95.4 minutes
Semi major axis: 6917 km
RCS: Unknown
Launch date: December 18, 2021
Source: United States (US)
Launch site: AIR FORCE WESTERN TEST RANGE (AFWTR)
Your satellite tracking list
Your tracking list is empty




NASA's NSSDC Master Catalog

Two Line Element Set (TLE):
1 50157U 21125B   24326.15889395 -.00001290  00000-0 -62952-4 0  9996
2 50157  53.2161 224.8810 0001452 107.7056 252.4095 15.08839252161885
Source of the keplerian elements: AFSPC